Terminal Aerodrome Forecast
Issued by NWS Jackson, MS

Home | Current Version | Previous Version | Text Only | Print | Product List | Glossary On
Versions: 1 2 3 4 5 6 7 8 9 10 11 12 13 14 15
000
FTUS44 KJAN 031100
TAFGLH
TAF
KGLH 031139Z 0312/0412 00000KT 1/2SM FG VV003
     FM031400 17006KT 2SM BR OVC005
     FM031800 19010KT 4SM BR OVC007
     FM040000 17006KT 2SM BR OVC003=

USA.gov is the U.S. government's official web portal to all federal, state and local government web resources and services.